STARLINK-36804

Last updated on Sun Mar 15 2026 00:02:06 GMT+0000 (Coordinated Universal Time)

1 67799U 26032C 26073.51985287 .00365547 00000+0 23343-2 0 9990 2 67799 97.2838 260.2438 0001682 70.3101 289.8346 15.75327802 5545
UTC large
Height (km)
Speed (km/s)
/
Latitude / Longitude
Inclination (degrees)
Orbital Period (minutes)
Azimuth
Elevation
Range (km)
Doppler Factor

Next 0 passes for location: London (51.5072 / 0.1276)

Sorry there are no passes over London.